Weather History for Gwinn, MI

Change the Weather History Date:

Friday, December 2, 2011

  Actual Average (KESC) Record (KESC)
Temperature  
Mean Temperature 17 °F -  
Max Temperature 26 °F 32 °F 53 °F (1982)
Min Temperature 8 °F 20 °F -3 °F (1976)
Degree Days  
Heating Degree Days 48    
Moisture  
Dew Point 12 °F    
Average Humidity 76    
Maximum Humidity 100    
Minimum Humidity 59    
Precipitation  
Precipitation 0.00 in - - ()
Sea Level Pressure  
Sea Level Pressure 30.27 in    
Wind  
Wind Speed 6 mph (SW)    
Max Wind Speed 17 mph    
Max Gust Speed 24 mph    
Visibility 10 miles    
Events Snow    
Averages and records for this station are not official NWS values.
T = Trace of Precipitation, MM = Missing Value Source: NWS Daily Summary

Daily Weather History Graph

Daily Weather History Graph

Search for Another Location

Airport:

Trip Planner

Search our weather history database for the weather conditions in past years. The results will help you decide how hot, cold, wet, or windy it might be!

Date:

Astronomy

Dec. 02, 2011 Rise Set
Actual Time 8:13 AM EST 5:04 PM EST
Civil Twilight 7:38 AM EST 5:38 PM EST
Nautical Twilight 7:01 AM EST 6:16 PM EST
Astronomical Twilight 6:24 AM EST 6:52 PM EST
Moon 1:04 PM EST (12/2) 12:19 AM EST (12/2)
Length of Visible Light 9h 59m
Length of Day
8h 51m
First Quarter, 53% of the Moon is Illuminated
Dec 2
First Quarter
Dec 10
Full
Dec 17
Last Quarter
Dec 24
New
Jan 1
First Quarter

Hourly Weather History & Observations

Time (EST) Temp. Windchill Dew Point Humidity Pressure Visibility Wind Dir Wind Speed Gust Speed Precip Events Conditions
12:06 AM 17.6 °F 10.7 °F 10.4 °F 73% 30.29 in 10.0 mi NNW 4.6 mph - N/A   Mostly Cloudy
12:25 AM 17.6 °F 9.3 °F 10.4 °F 73% 30.29 in 10.0 mi NW 5.8 mph - N/A   Mostly Cloudy
12:45 AM 15.8 °F 7.2 °F 10.4 °F 79% 30.30 in 10.0 mi WNW 5.8 mph - N/A   Mostly Cloudy
1:05 AM 17.6 °F 10.7 °F 10.4 °F 73% 30.29 in 10.0 mi NW 4.6 mph - N/A   Overcast
1:25 AM 17.6 °F 12.3 °F 10.4 °F 73% 30.29 in 10.0 mi WNW 3.5 mph - N/A   Overcast
1:45 AM 17.6 °F 9.3 °F 10.4 °F 73% 30.29 in 10.0 mi NNW 5.8 mph - N/A   Overcast
2:05 AM 17.6 °F 12.3 °F 12.2 °F 79% 30.29 in 10.0 mi NW 3.5 mph - N/A   Overcast
2:25 AM 17.6 °F 12.3 °F 12.2 °F 79% 30.29 in 10.0 mi NNW 3.5 mph - N/A   Overcast
2:57 AM 18.0 °F 12.7 °F 11.3 °F 75% 30.30 in 10.0 mi NNW 3.5 mph - N/A   Overcast
3:17 AM 17.4 °F - 11.8 °F 79% 30.30 in 10.0 mi Calm Calm - N/A   Overcast
3:36 AM 17.8 °F 12.5 °F 11.1 °F 75% 30.30 in 10.0 mi West 3.5 mph - N/A Snow Light Snow
3:57 AM 17.6 °F - 12.2 °F 79% 30.30 in 10.0 mi Calm Calm - N/A Snow Light Snow
4:17 AM 16.9 °F - 11.1 °F 78% 30.29 in 10.0 mi Calm Calm - N/A Snow Light Snow
4:37 AM 16.2 °F - 11.1 °F 81% 30.28 in 10.0 mi Calm Calm - N/A   Scattered Clouds
4:57 AM 14.7 °F - 10.4 °F 83% 30.29 in 10.0 mi Calm Calm - N/A   Mostly Cloudy
5:17 AM 12.2 °F - 9.5 °F 89% 30.29 in 10.0 mi Calm Calm - N/A   Scattered Clouds
5:28 AM 12.7 °F - 9.7 °F 88% 30.29 in 10.0 mi Calm Calm - N/A   Scattered Clouds
5:56 AM 11.3 °F - 8.4 °F 88% 30.29 in 10.0 mi Calm Calm - N/A   Scattered Clouds
6:50 AM 10.4 °F - 10.4 °F 100% 30.29 in 10.0 mi Calm Calm - N/A   Clear
7:50 AM 8.6 °F - 5.0 °F 85% 30.31 in 10.0 mi Calm Calm - N/A   Clear
8:50 AM 10.4 °F 2.2 °F 6.8 °F 85% 30.31 in 10.0 mi SSW 4.6 mph - N/A   Clear
9:55 AM 12.2 °F 2.9 °F 8.6 °F 85% 30.31 in 10.0 mi SSW 5.8 mph - N/A   Clear
10:50 AM 19.4 °F 7.9 °F 12.2 °F 74% 30.32 in 10.0 mi SSW 10.4 mph - N/A   Clear
11:50 AM 21.2 °F 10.1 °F 12.2 °F 68% 30.31 in 10.0 mi SW 10.4 mph - N/A   Clear
12:50 PM 23.0 °F 10.1 °F 12.2 °F 63% 30.29 in 10.0 mi SSW 15.0 mph - N/A   Clear
1:50 PM 23.0 °F 9.6 °F 12.2 °F 63% 30.27 in 10.0 mi SSW 16.1 mph - N/A   Clear
2:50 PM 24.8 °F 11.9 °F 12.2 °F 59% 30.26 in 10.0 mi South 16.1 mph - N/A   Clear
3:50 PM 26.6 °F 15.2 °F 14.0 °F 59% 30.24 in 10.0 mi South 13.8 mph - N/A   Clear
4:50 PM 24.8 °F 12.4 °F 12.2 °F 59% 30.24 in 10.0 mi South 15.0 mph - N/A   Clear
5:55 PM 23.0 °F 11.1 °F 14.0 °F 68% 30.23 in 10.0 mi South 12.7 mph - N/A   Clear
6:55 PM 21.2 °F 7.8 °F 14.0 °F 74% 30.23 in 10.0 mi South 15.0 mph - N/A   Clear
8:50 PM 23.0 °F 9.2 °F 15.8 °F 74% 30.21 in 10.0 mi South 17.3 mph 24.2 mph N/A   Clear
10:17 PM 23.4 °F 9.6 °F 16.7 °F 76% 30.20 in 10.0 mi SSW 17.3 mph - N/A   Clear
10:37 PM 23.7 °F 10.5 °F 17.6 °F 77% 30.20 in 10.0 mi South 16.1 mph - N/A   Clear
10:57 PM 23.5 °F 11.3 °F 17.6 °F 78% 30.19 in 10.0 mi South 13.8 mph - N/A   Clear
11:17 PM 23.5 °F 9.9 °F 17.6 °F 78% 30.20 in 10.0 mi SSW 17.3 mph - N/A   Clear
11:37 PM 23.5 °F 10.3 °F 18.0 °F 79% 30.19 in 10.0 mi SSW 16.1 mph 21.9 mph N/A   Clear
11:56 PM 23.7 °F 10.5 °F 18.0 °F 79% 30.19 in 10.0 mi South 16.1 mph - N/A   Clear